Weather in Fes

Morocco     34˚01′56″N   5˚00′55″W
temp.,
°C
wind,
m/s
gust,
m/s
humid.,
%
clouds,
%
prec.,
mm/h
press.,
hPa
HPBL,
m
28 november, sat
sat2801:00+11˚wsw51074100 3.1 10091091
04:00+11˚wsw61270100 0.8 10091098
07:00+11˚w61377100 3.6 10111145
10:00+11˚wsw61273100 1.4 1012910
13:00+15˚wsw7115987 1.5 10121394
16:00+16˚w7105559 0.3 10111521
19:00+13˚wsw376767 0.4 1013441
22:00+12˚ssw256175 0.0 1014252
29 november, sun
sun2901:00+12˚sse125988 0.0 101429
04:00+12˚se2257100 0.0 101447
07:00+12˚ese225498 0.0 101327
10:00+14˚ene124952 0.0 1015122
13:00+17˚ne333943 0.0 1014590
16:00+18˚nne223916 0.0 10131064
19:00+15˚ne115249 0.0 101328
22:00+14˚e115749 0.0 101523
30 november, mon
mon3001:00+13˚e225359 0.0 101544
04:00+12˚ese11545 0.0 101524
07:00+11˚ese12532 0.0 101528
10:00+14˚e22460 0.0 1016114
13:00+18˚nne21380 0.0 1016447
16:00+19˚nw33360 0.0 1015890
19:00+15˚wnw24590 0.0 1016175
22:00+13˚ssw01660 0.0 101846
1 december, tue
tue101:00+13˚ene116712 0.0 101828
04:00+12˚e11650 0.0 101830
07:00+12˚ese22612 0.0 101842
10:00+15˚e12470 0.0 101995
13:00+20˚ne33370 0.0 1019424
16:00+21˚ene45340 0.0 1016593
19:00+17˚e23440 0.0 101771
22:00+16˚ese22460 0.0 101827
2 december, wed
wed201:00+15˚ese22470 0.0 101828
04:00+14˚ese22440 0.0 101631
07:00+13˚ese12420 0.0 101523
10:00+16˚e22380 0.0 101589
13:00+20˚ne22310 0.0 1013397
16:00+21˚nne22310 0.0 1010556
19:00+17˚sw014130 0.0 101123
22:00+17˚sw114399 0.0 101223